| time (UTC) | temp F | wind direction | speed MPH | gust MPH | rain 1hr in | rain 24hr in | rain mn in | humidity % | barometer mb |
| 20260901023008 | 86 | 90 | 0.0 | 0.0 | 0.00 | 0.00 | 0.00 | 52 | 1012.1 |
| 20260901021559 | 87 | 90 | 0.0 | 0.0 | 0.00 | 0.00 | 0.00 | 49 | 1012.0 |
| 20260901020058 | 88 | 90 | 0.0 | 0.0 | 0.00 | 0.00 | 0.00 | 48 | 1011.8 |
| 20260901014552 | 89 | 90 | 0.0 | 1.0 | 0.00 | 0.00 | 0.00 | 45 | 1011.5 |
| 20260901013057 | 90 | 90 | 0.0 | 1.0 | 0.00 | 0.00 | 0.00 | 44 | 1011.5 |
| 20260901011547 | 91 | 65 | 0.0 | 2.0 | 0.00 | 0.00 | 0.00 | 43 | 1011.3 |
| 20260901010045 | 92 | 56 | 1.0 | 4.0 | 0.00 | 0.00 | 0.00 | 42 | 1011.3 |
| 20260901004549 | 92 | 88 | 1.0 | 5.0 | 0.00 | 0.00 | 0.00 | 41 | 1011.3 |
| 20260901003039 | 93 | 119 | 1.0 | 4.0 | 0.00 | 0.00 | 0.00 | 40 | 1011.2 |
| 20260901001536 | 94 | 98 | 1.0 | 3.0 | 0.00 | 0.00 | 0.00 | 40 | 1011.1 |
| 20260901000035 | 95 | 44 | 1.0 | 4.0 | 0.00 | 0.00 | 0.00 | 39 | 1011.0 |
| 20260831234534 | 96 | 117 | 3.0 | 7.0 | 0.00 | 0.00 | 0.00 | 39 | 1011.1 |
| 20260831233030 | 97 | 129 | 3.0 | 10.0 | 0.00 | 0.00 | 0.00 | 38 | 1011.1 |
| 20260831231539 | 97 | 130 | 1.0 | 8.0 | 0.00 | 0.00 | 0.00 | 36 | 1011.1 |
| 20260831230037 | 97 | 124 | 3.0 | 5.0 | 0.00 | 0.00 | 0.00 | 35 | 1011.2 |
| 20260831224527 | 97 | 125 | 1.0 | 8.0 | 0.00 | 0.00 | 0.00 | 35 | 1011.1 |
| 20260831223026 | 97 | 164 | 4.0 | 11.0 | 0.00 | 0.00 | 0.00 | 35 | 1011.3 |
| 20260831221531 | 98 | 104 | 3.0 | 9.0 | 0.00 | 0.00 | 0.00 | 36 | 1011.5 |
| 20260831220025 | 98 | 74 | 3.0 | 9.0 | 0.00 | 0.00 | 0.00 | 35 | 1011.5 |
| 20260831214522 | 99 | 83 | 3.0 | 8.0 | 0.00 | 0.00 | 0.00 | 38 | 1011.7 |
| 20260831213018 | 99 | 189 | 5.0 | 9.0 | 0.00 | 0.00 | 0.00 | 35 | 1011.9 |
| 20260831211527 | 99 | 130 | 5.0 | 12.0 | 0.00 | 0.00 | 0.00 | 35 | 1012.0 |
| 20260831210010 | 99 | 178 | 5.0 | 10.0 | 0.00 | 0.00 | 0.00 | 36 | 1012.2 |
| 20260831204510 | 98 | 157 | 3.0 | 9.0 | 0.00 | 0.00 | 0.00 | 39 | 1012.6 |
| 20260831203010 | 99 | 133 | 4.0 | 10.0 | 0.00 | 0.00 | 0.00 | 38 | 1012.9 |
| 20260831201600 | 98 | 153 | 2.0 | 9.0 | 0.00 | 0.00 | 0.00 | 42 | 1013.0 |
| 20260831200059 | 99 | 167 | 3.0 | 9.0 | 0.00 | 0.00 | 0.00 | 39 | 1013.2 |
| 20260831194620 | 98 | 148 | 2.0 | 7.0 | 0.00 | 0.00 | 0.00 | 41 | 1013.5 |
| 20260831193048 | 98 | 147 | 4.0 | 12.0 | 0.00 | 0.00 | 0.00 | 40 | 1013.6 |
| 20260831191550 | 97 | 175 | 3.0 | 11.0 | 0.00 | 0.00 | 0.00 | 41 | 1013.8 |
| 20260831190046 | 97 | 171 | 3.0 | 11.0 | 0.00 | 0.00 | 0.00 | 43 | 1014.2 |
| 20260831184532 | 96 | 140 | 3.0 | 9.0 | 0.00 | 0.00 | 0.00 | 44 | 1014.2 |